VK4RM-13 Weather Reports


time (UTC)temp
C
wind
direction
speed
KPH
gust
KPH
rain 1hr
cm
rain 24hr
cm
rain mn
cm
humidity
%
barometer
mb
20260506102635 20 44 0.0 0.0 0.00 0.10 0.00 93 995.6
20260506101635 20 44 0.0 0.0 0.00 0.10 0.00 94 995.6
20260506100635 20 44 0.0 0.0 0.00 0.10 0.00 94 995.5
20260506095635 20 44 0.0 0.0 0.00 0.10 0.00 94 995.5
20260506094635 20 44 0.0 0.0 0.00 0.10 0.00 93 995.4
20260506093635 20 44 0.0 0.0 0.00 0.10 0.00 93 995.2
20260506092635 20 44 0.0 0.0 0.00 0.10 0.00 93 995.1
20260506091635 20 44 0.0 0.0 0.00 0.10 0.00 93 995.0
20260506090635 20 44 0.0 0.0 0.00 0.10 0.00 93 994.9
20260506085635 20 44 0.0 0.0 0.00 0.10 0.00 93 994.7
20260506084636 20 44 0.0 0.0 0.00 0.10 0.00 93 994.6
20260506083635 20 44 0.0 0.0 0.00 0.10 0.00 93 994.5
20260506082635 20 44 0.0 0.0 0.00 0.10 0.00 93 994.4
20260506081635 20 44 0.0 0.0 0.00 0.10 0.00 92 994.3
20260506080635 20 44 0.0 0.0 0.00 0.10 0.00 92 994.2
20260506072635 21 44 0.0 0.0 0.00 0.10 0.00 92 994.0
20260506071635 21 44 0.0 0.0 0.00 0.10 0.00 92 994.0
20260506070636 21 44 0.0 0.0 0.00 0.10 0.00 92 993.8
20260506061636 22 44 0.0 0.0 0.08 0.10 0.10 89 993.5
20260506060636 22 44 0.0 3.2 0.08 0.10 0.10 87 993.5
20260506050636 26 355 0.0 6.4 0.00 0.03 0.03 72 993.3
20260506044636 25 321 1.6 9.7 0.00 0.03 0.03 75 993.3
20260506043636 25 310 1.6 6.4 0.00 0.03 0.03 74 993.4
20260506042636 25 336 1.6 9.7 0.00 0.03 0.03 74 993.6
20260506041636 25 307 0.0 6.4 0.00 0.03 0.03 75 993.5
20260506040636 25 0 0.0 3.2 0.00 0.03 0.03 77 993.7
20260506035636 25 0 0.0 0.0 0.00 0.03 0.03 78 993.9
20260506034636 24 0 0.0 6.4 0.00 0.03 0.03 79 994.0
20260506033636 23 5 0.0 1.6 0.00 0.03 0.03 80 994.0
20260506032636 23 325 0.0 0.0 0.03 0.03 0.03 82 994.0
20260506030636 24 325 3.2 11.3 0.03 0.03 0.03 80 994.3
20260506025636 24 326 0.0 8.0 0.03 0.03 0.03 78 994.3
20260506024636 24 0 1.6 8.0 0.03 0.03 0.03 80 994.5
20260506023636 23 307 0.0 1.6 0.03 0.03 0.03 84 994.6
20260506022636 23 309 3.2 14.5 0.00 0.00 0.00 80 994.6
20260506021636 24 292 3.2 3.2 0.00 0.00 0.00 79 994.6
20260506020636 25 287 1.6 9.7 0.00 0.00 0.00 76 994.6
20260506015636 25 13 3.2 8.0 0.00 0.00 0.00 73 994.6
20260506014636 25 351 3.2 8.0 0.00 0.00 0.00 73 994.8
20260506013636 25 341 4.8 12.9 0.00 0.00 0.00 73 995.0
20260506012637 25 323 1.6 11.3 0.00 0.00 0.00 72 995.1
20260506011636 25 340 3.2 14.5 0.00 0.00 0.00 73 995.1
20260506010636 25 24 3.2 8.0 0.00 0.00 0.00 73 995.3
20260506005636 25 355 4.8 11.3 0.00 0.00 0.00 73 995.4
20260506004636 25 29 1.6 11.3 0.00 0.00 0.00 72 995.6
20260506003636 25 346 3.2 8.0 0.00 0.00 0.00 72 995.7
20260506002636 25 323 1.6 8.0 0.00 0.00 0.00 74 995.9
20260506001636 25 252 3.2 8.0 0.00 0.00 0.00 74 995.9
20260506000636 25 36 1.6 6.4 0.00 0.00 0.00 74 995.8
20260505235636 25 323 1.6 11.3 0.00 0.00 0.00 74 996.0
20260505234636 25 11 1.6 3.2 0.00 0.00 0.00 75 995.8
20260505233637 24 19 3.2 8.0 0.00 0.00 0.00 75 995.9
20260505232636 24 350 0.0 11.3 0.00 0.00 0.00 75 996.0
20260505231636 23 52 0.0 0.0 0.00 0.00 0.00 77 995.9
20260505230636 23 39 0.0 1.6 0.00 0.00 0.00 78 995.8
20260505225636 23 44 0.0 1.6 0.00 0.00 0.00 80 995.8
20260505224636 22 313 0.0 0.0 0.00 0.00 0.00 82 995.6
20260505223636 22 329 0.0 3.2 0.00 0.00 0.00 82 995.6
20260505222636 22 87 0.0 3.2 0.00 0.00 0.00 84 995.5
20260505221637 21 75 0.0 0.0 0.00 0.00 0.00 86 995.6
20260505220637 21 75 0.0 0.0 0.00 0.00 0.00 88 995.6
20260505215637 20 90 0.0 0.0 0.00 0.00 0.00 90 995.6
20260505214637 20 76 0.0 0.0 0.00 0.00 0.00 93 995.6
20260505213637 20 37 0.0 0.0 0.00 0.00 0.00 94 995.5
20260505212637 19 37 0.0 0.0 0.00 0.00 0.00 93 995.4
20260505211637 19 37 0.0 0.0 0.00 0.00 0.00 93 995.3
20260505210637 19 37 0.0 0.0 0.00 0.00 0.00 94 995.2
20260505205637 19 37 0.0 3.2 0.00 0.00 0.00 94 995.1
20260505204638 18 36 1.6 6.4 0.00 0.00 0.00 95 995.0
20260505203637 18 312 0.0 0.0 0.00 0.00 0.00 95 994.9
20260505202637 18 312 0.0 0.0 0.00 0.00 0.00 94 994.9
20260505201637 18 312 0.0 0.0 0.00 0.00 0.00 94 994.7
20260505200637 18 312 0.0 0.0 0.00 0.00 0.00 94 994.7
20260505195640 18 312 0.0 0.0 0.00 0.00 0.00 94 994.6
20260505194637 18 312 0.0 0.0 0.00 0.00 0.00 94 994.6
20260505193637 18 312 0.0 0.0 0.00 0.00 0.00 94 994.5
20260505192637 18 312 0.0 0.0 0.00 0.00 0.00 93 994.3
20260505191637 18 312 0.0 0.0 0.00 0.00 0.00 93 994.2
20260505190637 18 312 0.0 0.0 0.00 0.00 0.00 94 994.1
20260505185637 18 312 0.0 0.0 0.00 0.00 0.00 93 994.0
20260505184637 18 312 0.0 0.0 0.00 0.00 0.00 93 994.0
20260505183637 19 312 0.0 0.0 0.00 0.00 0.00 93 994.0
20260505182638 19 312 0.0 1.6 0.00 0.00 0.00 93 994.0
20260505181637 19 309 0.0 0.0 0.00 0.00 0.00 94 994.0
20260505180637 19 309 0.0 0.0 0.00 0.00 0.00 94 993.9
20260505175637 19 309 0.0 0.0 0.00 0.00 0.00 94 994.0
20260505174637 19 309 0.0 0.0 0.00 0.00 0.00 94 994.1
20260505173637 19 309 0.0 0.0 0.00 0.00 0.00 94 994.1
20260505172637 19 309 0.0 0.0 0.00 0.00 0.00 94 994.2
20260505171637 18 309 0.0 0.0 0.00 0.00 0.00 94 994.3
20260505170637 18 309 0.0 0.0 0.00 0.00 0.00 93 994.3
20260505165637 18 309 0.0 0.0 0.00 0.03 0.00 93 994.2
20260505164637 18 309 0.0 0.0 0.00 0.03 0.00 93 994.3
20260505163637 18 307 0.0 0.0 0.00 0.03 0.00 93 994.3
20260505162641 19 307 0.0 0.0 0.00 0.03 0.00 93 994.4
20260505161637 19 307 0.0 0.0 0.00 0.03 0.00 93 994.5
20260505160637 19 307 0.0 0.0 0.00 0.03 0.00 92 994.6
20260505152637 20 307 0.0 0.0 0.00 0.03 0.00 92 994.9
20260505151637 20 307 0.0 0.0 0.00 0.03 0.00 92 995.0
20260505150637 20 307 0.0 0.0 0.00 0.03 0.00 92 995.1
20260505140637 20 307 0.0 0.0 0.00 0.03 0.00 92 995.4
20260505123638 20 307 0.0 0.0 0.00 0.03 0.00 91 996.1
20260505122638 20 307 0.0 0.0 0.00 0.03 0.00 91 996.0
20260505121638 20 307 0.0 0.0 0.00 0.03 0.00 91 996.2
20260505115638 20 307 0.0 0.0 0.00 0.03 0.00 90 996.3
20260505114638 20 307 0.0 0.0 0.00 0.03 0.00 91 996.2
20260505112638 20 307 0.0 0.0 0.00 0.03 0.00 90 996.2
20260505111638 20 307 0.0 0.0 0.00 0.03 0.00 90 996.3
20260505110639 20 307 0.0 0.0 0.00 0.03 0.00 90 996.4